User: anonymous   Login
Location: Saint Peter Port
(49.4500°N, 2.5330°W)
Time: 08:29:52
(UTC+00:00)
Language:

Cosmos 2242 Rocket - Orbit

View from above orbital plane
View from above orbital plane
View from above satellite
View from above satellite

Ground track
Ground track

The orbit data is extracted from the following two-line orbital elements,

1 22627U 93024B   14299.05182131  .00000665  00000-0  89390-4 0  4718
2 22627 082.5213 276.1881 0022468 243.1570 182.0692 14.77695927159593
Epoch (UTC): 26 October 2014 01:14:37
Eccentricity: 0.0022468
inclination: 82.5213°
perigee height: 621 km
apogee height: 652 km
right ascension of ascending node: 276.1881°
argument of perigee: 243.1570°
revolutions per day: 14.77695927
mean anomaly at epoch: 182.0692°
orbit number at epoch: 15959

The dashed part of the orbit path shows where the satellite is in the earth's shadow,  

DLR